[[{"header":{"parameterUnit":"m.s-1","parameterCategory":1,"la1":30.2991,"la2":30.254,"lo1":-89.0895,"lo2":-89.0444,"dy":0.0017,"dx":0.0017,"nx":28,"ny":28,"refTime":"2024-06-02T03:00:00:Z","depth":0,"parameterNumber":2,"parameterNumberName":"U-component_of_WINDS"},"data":[0,0,0,0,0,0,0,0,0,0,0,0,0,0,0,0,0,0,0,0,0,0,0,0,0,0,0,0,0,0,0,0,0,0,0,0,0,0,0,0,0,0,0,0,0,0,0,0,0,0,0,0,0,0,0,0,0,0,-1.0508,-1.0508,0,-1.0484,-1.0484,-1.0483,-1.0456,-1.0455,-1.0455,-1.0455,-1.0429,-1.0429,-1.0428,0,0,0,0,0,0,0,0,0,0,0,0,0,-1.0532,-1.0532,-1.0508,-1.0508,-1.0508,-1.0484,-1.0484,-1.0483,-1.0456,-1.0455,-1.0455,-1.0454,-1.0429,-1.0429,-1.0428,0,0,0,0,0,0,0,0,0,0,0,0,0,-1.0516,-1.0532,-1.0508,-1.0491,-1.049,-1.0484,-1.0484,-1.0483,-1.0456,-1.0455,-1.0455,-1.0454,-1.0429,-1.0429,-1.0428,-1.0437,0,0,-1.0427,-1.0426,0,0,0,0,0,0,0,0,-1.0517,-1.0516,-1.0494,-1.0492,-1.049,-1.0472,-1.0483,-1.0468,-1.0456,-1.0469,-1.0455,-1.0454,-1.0444,-1.0442,-1.0439,-1.0436,-1.0435,-1.0427,-1.0426,-1.0426,-1.0426,0,0,0,0,0,0,0,-1.0518,-1.0516,-1.0499,-1.0494,-1.0492,-1.0485,-1.0482,-1.048,-1.046,-1.0468,-1.0466,-1.0463,-1.0443,-1.0439,-1.0438,-1.0434,-1.0427,-1.0426,-1.0426,-1.0426,-1.044,-1.044,0,0,0,0,0,0,-1.0522,-1.0518,-1.0499,-1.0498,-1.0503,-1.0485,-1.0482,-1.0479,-1.046,-1.0456,-1.0464,-1.0462,-1.044,-1.0438,-1.0437,-1.0447,-1.0426,-1.0426,-1.0425,-1.0439,-1.044,-1.0441,0,0,0,0,0,0,-1.0523,-1.0521,-1.05,-1.0507,-1.0504,-1.0485,-1.0482,-1.0479,-1.0475,-1.0457,-1.0453,-1.0464,-1.044,-1.0438,-1.0438,-1.0446,-1.0425,-1.0425,-1.0438,-1.0439,-1.044,-1.0467,0,0,0,0,0,0,-1.0524,-1.0521,-1.0524,-1.0507,-1.0504,-1.0501,-1.0483,-1.0479,-1.0474,-1.0472,-1.0456,-1.0453,-1.0439,-1.0439,-1.0437,-1.0445,-1.0425,-1.0438,-1.0439,-1.044,-1.0465,-1.0468,-1.0471,0,0,0,0,0,-1.0525,-1.0532,-1.0524,-1.0522,-1.0507,-1.0502,-1.05,-1.0484,-1.0475,-1.0478,-1.0467,-1.0453,-1.0445,-1.0439,-1.0437,-1.0444,-1.0437,-1.0438,-1.044,-1.0464,-1.0468,-1.0471,0,0,0,0,0,0,-1.0549,-1.0529,-1.0521,-1.0523,-1.0514,-1.0497,-1.05,-1.0489,-1.0483,-1.048,-1.0461,-1.0458,-1.0461,-1.0453,-1.0446,-1.0453,-1.0439,-1.0441,-1.0458,-1.0462,-1.0465,-1.0466,-1.0424,0,0,0,0,0,-1.0555,-1.0552,-1.0535,-1.0539,-1.0535,-1.0519,-1.0516,-1.0505,-1.0495,-1.0491,-1.048,-1.0471,-1.0467,-1.0464,-1.0459,-1.0464,-1.0461,-1.0469,-1.0472,-1.0475,-1.0476,-1.0479,-1.0483,-1.0446,-1.0445,-1.0445,0,0,-1.0566,-1.0555,-1.0555,-1.0544,-1.0536,-1.0534,-1.0516,-1.0514,-1.0513,-1.0491,-1.049,-1.0482,-1.0471,-1.0474,-1.0475,-1.0468,-1.0485,-1.0477,-1.0479,-1.0478,-1.0481,-1.0485,-1.0488,-1.0447,-1.0446,-1.0446,0,0,-1.0586,-1.0578,-1.058,-1.0573,-1.0562,-1.0551,-1.0552,-1.0537,-1.0531,-1.0531,-1.0515,-1.0513,-1.0506,-1.0499,-1.0495,-1.0515,-1.0503,-1.0514,-1.053,-1.0534,-1.0537,-1.0539,-1.0547,-1.055,-1.0515,-1.0515,-1.0515,0,-1.0602,-1.0598,-1.0583,-1.0583,-1.0579,-1.0561,-1.0563,-1.0557,-1.0545,-1.0543,-1.0535,-1.0526,-1.0518,-1.052,-1.0525,-1.0522,-1.0523,-1.0515,-1.0538,-1.054,-1.0542,-1.0549,-1.0552,-1.0517,-1.0517,-1.0517,-1.0516,0,-1.0618,-1.0616,-1.062,-1.0609,-1.0606,-1.0607,-1.0593,-1.0591,-1.0581,-1.0572,-1.0573,-1.0562,-1.0555,-1.0555,-1.0545,-1.0556,-1.0552,-1.0541,-1.0527,-1.0547,-1.0554,-1.0556,-1.0519,-1.0518,-1.0518,-1.0518,0,0,-1.0651,-1.0634,-1.0635,-1.0631,-1.0618,-1.0616,-1.0618,-1.0611,-1.0611,-1.0604,-1.0604,-1.06,-1.0591,-1.0586,-1.0575,-1.0579,-1.0596,-1.0568,-1.0567,-1.0573,-1.0609,-1.0616,-1.0619,-1.0589,-1.0589,-1.0589,-1.061,0,-1.0668,-1.0669,-1.0657,-1.0661,-1.0659,-1.0643,-1.0645,-1.0638,-1.0629,-1.0627,-1.0618,-1.0615,-1.0603,-1.0601,-1.0603,-1.0594,-1.0603,-1.0592,-1.0589,-1.0589,-1.0592,-1.0623,-1.063,-1.0649,-1.0612,-1.0612,-1.0613,0,-1.0688,-1.0683,-1.0688,-1.0676,-1.0675,-1.0677,-1.0671,-1.0669,-1.0661,-1.0655,-1.0651,-1.0639,-1.0641,-1.0628,-1.063,-1.0623,-1.0621,-1.0617,-1.0617,-1.0616,-1.0601,-1.0621,-1.0655,-1.0658,-1.0616,-1.0616,-1.0616,0,-1.0711,-1.0706,-1.0708,-1.0705,-1.0692,-1.0693,-1.0688,-1.068,-1.0677,-1.0673,-1.0671,-1.0667,-1.0664,-1.0661,-1.0649,-1.0641,-1.0653,-1.0639,-1.0648,-1.0648,-1.065,-1.0649,-1.0683,-1.065,-1.065,-1.065,-1.065,0,-1.0732,-1.0735,-1.0719,-1.072,-1.0724,-1.071,-1.0714,-1.0707,-1.0701,-1.0701,-1.0687,-1.0687,-1.0672,-1.0671,-1.0662,-1.0665,-1.0664,-1.0659,-1.0657,-1.066,-1.0661,-1.0658,-1.0656,-1.0651,-1.065,-1.065,-1.065,0,-1.0758,-1.0747,-1.0748,-1.0737,-1.0734,-1.0737,-1.0727,-1.0728,-1.0721,-1.0721,-1.072,-1.0708,-1.0706,-1.0694,-1.069,-1.0684,-1.0691,-1.0686,-1.0693,-1.0691,-1.0701,-1.07,-1.0733,-1.0737,-1.0702,-1.0703,-1.0703,0,-1.0771,-1.0773,-1.0762,-1.0762,-1.0757,-1.0756,-1.0754,-1.0742,-1.074,-1.0733,-1.0735,-1.0733,-1.073,-1.0728,-1.0719,-1.0716,-1.071,-1.0722,-1.071,-1.0714,-1.071,-1.071,-1.0711,-1.0725,-1.0725,-1.0725,-1.0726,0,-1.0796,-1.0791,-1.0788,-1.0785,-1.0783,-1.0779,-1.0775,-1.0775,-1.0762,-1.0761,-1.0759,-1.0757,-1.0754,-1.0752,-1.0748,-1.0742,-1.0732,-1.073,-1.0732,-1.0735,-1.0739,-1.0737,-1.07,-1.0729,-1.0729,-1.0729,-1.0728,-1.0728,-1.0815,-1.0817,-1.081,-1.0809,-1.0804,-1.0801,-1.0802,-1.0795,-1.0794,-1.079,-1.0783,-1.0783,-1.0777,-1.077,-1.0766,-1.0766,-1.076,-1.0763,-1.0763,-1.0764,-1.0766,-1.074,-1.0765,-1.0765,-1.0765,-1.0765,-1.0765,0,-1.0839,-1.0835,-1.0833,-1.0828,-1.0827,-1.0819,-1.0814,-1.0814,-1.0814,-1.0809,-1.0808,-1.0807,-1.0805,-1.0797,-1.0794,-1.0796,-1.0792,-1.0796,-1.0795,-1.0795,-1.0772,-1.077,-1.08,-1.08,-1.08,-1.08,-1.08,-1.08,-1.0852,-1.0855,-1.0849,-1.0851,-1.0846,-1.0846,-1.0844,-1.0841,-1.0838,-1.0838,-1.0837,-1.0831,-1.0825,-1.0823,-1.0822,-1.0819,-1.0819,-1.0825,-1.0821,-1.0799,-1.0796,-1.0793,-1.0791,-1.0825,-1.0825,-1.0844,-1.0844,-1.0844]},{"header":{"parameterUnit":"m.s-1","parameterCategory":1,"la1":30.2991,"la2":30.254,"lo1":-89.0895,"lo2":-89.0444,"dy":0.0017,"dx":0.0017,"nx":28,"ny":28,"refTime":"2024-06-02T03:00:00:Z","depth":0,"parameterNumber":3,"parameterNumberName":"V-component_of_WINDS"},"data":[0,0,0,0,0,0,0,0,0,0,0,0,0,0,0,0,0,0,0,0,0,0,0,0,0,0,0,0,0,0,0,0,0,0,0,0,0,0,0,0,0,0,0,0,0,0,0,0,0,0,0,0,0,0,0,0,0,0,3.7361,3.736,0,3.7272,3.7271,3.727,3.7273,3.7274,3.7275,3.7277,3.7178,3.7174,3.717,0,0,0,0,0,0,0,0,0,0,0,0,0,3.7526,3.7523,3.7361,3.736,3.7359,3.7273,3.7271,3.727,3.7273,3.7274,3.7276,3.7277,3.7179,3.7174,3.717,0,0,0,0,0,0,0,0,0,0,0,0,0,3.7447,3.7522,3.7361,3.735,3.7348,3.7273,3.7271,3.727,3.7272,3.7274,3.7276,3.7278,3.718,3.7175,3.7169,3.7097,0,0,3.7152,3.7149,0,0,0,0,0,0,0,0,3.7452,3.7441,3.7353,3.7351,3.7348,3.7286,3.7293,3.7212,3.7272,3.7301,3.7277,3.7279,3.7212,3.7204,3.7183,3.7092,3.7088,3.7151,3.7148,3.7146,3.7144,0,0,0,0,0,0,0,3.7457,3.7445,3.7326,3.7351,3.7349,3.7347,3.7338,3.7278,3.7247,3.7299,3.7299,3.7288,3.7211,3.7188,3.718,3.7087,3.7152,3.7147,3.7143,3.7141,3.6932,3.693,0,0,0,0,0,0,3.7466,3.7449,3.7329,3.7323,3.7406,3.7343,3.7332,3.7304,3.7247,3.7241,3.7287,3.7289,3.7197,3.7187,3.7177,3.7088,3.7146,3.714,3.7137,3.6934,3.6932,3.693,0,0,0,0,0,0,3.7469,3.7455,3.7332,3.7386,3.7371,3.7338,3.7306,3.7301,3.7279,3.7239,3.7232,3.727,3.7198,3.7185,3.7117,3.7085,3.7138,3.7133,3.6937,3.6934,3.6931,3.691,0,0,0,0,0,0,3.7474,3.7456,3.743,3.7386,3.7368,3.7276,3.7304,3.7298,3.727,3.7271,3.7221,3.7214,3.7198,3.7126,3.7112,3.7078,3.7128,3.694,3.6935,3.6932,3.6914,3.6907,3.6901,0,0,0,0,0,3.748,3.7426,3.7429,3.7414,3.7335,3.7274,3.7264,3.7249,3.7267,3.7239,3.7214,3.7216,3.7091,3.7119,3.7103,3.7067,3.6942,3.6937,3.6932,3.6917,3.6908,3.6901,0,0,0,0,0,0,3.7464,3.742,3.7422,3.7353,3.7318,3.7275,3.7239,3.724,3.7197,3.72,3.7181,3.7169,3.7102,3.7078,3.711,3.6994,3.7018,3.701,3.7012,3.7004,3.6997,3.7004,3.7123,0,0,0,0,0,3.7453,3.7411,3.7373,3.7316,3.7298,3.7272,3.7245,3.7237,3.7198,3.7183,3.7152,3.7113,3.7065,3.7033,3.6986,3.6911,3.6899,3.6878,3.6872,3.6867,3.6859,3.6817,3.6807,3.6914,3.6914,3.6914,0,0,3.7429,3.74,3.7373,3.7312,3.7283,3.7238,3.7259,3.7209,3.7174,3.7174,3.7109,3.7086,3.704,3.6969,3.6935,3.6946,3.6828,3.6861,3.6857,3.6852,3.6811,3.6801,3.6792,3.6911,3.6911,3.6912,0,0,3.7361,3.7335,3.7285,3.7257,3.7215,3.7198,3.7186,3.7143,3.7128,3.7064,3.7063,3.702,3.6937,3.6905,3.6878,3.68,3.6799,3.6785,3.6751,3.671,3.6701,3.6694,3.6665,3.6655,3.6778,3.6778,3.6778,0,3.7335,3.7269,3.7258,3.7208,3.7181,3.7182,3.7129,3.7101,3.7045,3.7025,3.7039,3.6937,3.6906,3.6827,3.6808,3.6786,3.677,3.679,3.6704,3.6696,3.6689,3.6661,3.665,3.6776,3.6776,3.6777,3.6777,0,3.7239,3.7192,3.7156,3.7105,3.7073,3.7022,3.7002,3.6971,3.6966,3.6947,3.688,3.6844,3.679,3.6771,3.6764,3.6691,3.6699,3.6709,3.6732,3.6677,3.6651,3.664,3.6774,3.6775,3.6775,3.6775,0,0,3.7156,3.7102,3.7089,3.7066,3.702,3.6983,3.6932,3.6882,3.6855,3.6817,3.6772,3.6703,3.6713,3.6682,3.6671,3.6636,3.6575,3.665,3.6648,3.6636,3.6491,3.6483,3.6471,3.6576,3.6574,3.6572,3.6494,0,3.7083,3.6995,3.6984,3.6905,3.6861,3.6863,3.6818,3.6784,3.6765,3.6723,3.6702,3.6653,3.667,3.6651,3.6616,3.659,3.6546,3.6596,3.6532,3.653,3.6542,3.6457,3.6448,3.6377,3.6484,3.6482,3.6481,0,3.6986,3.6948,3.6865,3.6827,3.6808,3.6768,3.6722,3.6683,3.6644,3.6633,3.6599,3.6594,3.6539,3.6567,3.6489,3.6524,3.6497,3.6481,3.6477,3.6469,3.6501,3.6446,3.6353,3.6342,3.6465,3.6466,3.6467,0,3.6933,3.6861,3.6803,3.6783,3.6737,3.6708,3.6687,3.6651,3.6622,3.6581,3.6561,3.6513,3.6487,3.6449,3.643,3.6452,3.6353,3.638,3.6341,3.6341,3.6318,3.632,3.6219,3.6303,3.6304,3.6304,3.6304,0,3.6852,3.6801,3.6779,3.6742,3.6685,3.6672,3.6615,3.6594,3.6562,3.652,3.6517,3.6477,3.6456,3.6412,3.6397,3.6335,3.6323,3.631,3.6307,3.631,3.6311,3.6291,3.6295,3.6301,3.6302,3.6302,3.6303,0,3.6783,3.6766,3.6702,3.6665,3.6654,3.6613,3.658,3.6543,3.6526,3.6473,3.646,3.6431,3.638,3.6358,3.6294,3.6284,3.6212,3.6213,3.6226,3.6225,3.6187,3.619,3.6068,3.6051,3.6148,3.6147,3.6146,0,3.6731,3.6693,3.6652,3.6625,3.6604,3.6561,3.6532,3.6518,3.6488,3.6442,3.641,3.636,3.6319,3.6236,3.6208,3.6159,3.6157,3.6118,3.615,3.6154,3.6155,3.6158,3.6153,3.6112,3.6111,3.611,3.6109,0,3.6642,3.6636,3.6596,3.6554,3.652,3.6485,3.6451,3.6429,3.6409,3.6375,3.6324,3.6292,3.6229,3.6178,3.6127,3.6103,3.6102,3.61,3.6088,3.609,3.61,3.6093,3.6209,3.6102,3.6103,3.6104,3.6104,3.6104,3.6579,3.6545,3.6512,3.6467,3.6441,3.6409,3.6374,3.6353,3.6311,3.626,3.6254,3.6199,3.6161,3.6094,3.6068,3.6023,3.6032,3.6016,3.6011,3.6007,3.6004,3.6108,3.6014,3.6014,3.6014,3.6014,3.6014,0,3.6489,3.6468,3.6428,3.6381,3.6346,3.6352,3.6315,3.6284,3.6237,3.6203,3.6163,3.6104,3.6056,3.6025,3.5975,3.5945,3.5943,3.5932,3.5933,3.5928,3.5999,3.6014,3.5934,3.5935,3.5935,3.5935,3.5935,3.5935,3.6437,3.638,3.637,3.6299,3.6278,3.6227,3.6205,3.6175,3.6148,3.6083,3.6044,3.6025,3.5992,3.594,3.5894,3.5886,3.5867,3.5856,3.5848,3.5914,3.5923,3.593,3.5944,3.5852,3.5852,3.578,3.578,3.5779]}]]